Regional Weather Roundup
Issued by NWS

Home | Current Version | Previous Version | Text Only | Print | Product List | Glossary On
Versions: 1 2 3 4 5 6 7 8 9 10 11 12 13 14 15 16 17 18 19 20 21 22 23 24 25 26 27
000
ASUS42 KTBW 231917
RWRFL
FLORIDA REGIONAL WEATHER ROUNDUP
NATIONAL WEATHER SERVICE TAMPA BAY RUSKIN FL
300 PM EDT TUE MAY 23 2017

NOTE: "FAIR" INDICATES FEW OR NO CLOUDS BELOW 12,000 FEET WITH NO
SIGNIFICANT WEATHER AND/OR OBSTRUCTIONS TO VISIBILITY.

FLZ001>010-012>015-112-114-115-232000-
PANHANDLE FLORIDA

CITY           SKY/WX    TMP DP  RH WIND       PRES   REMARKS
PENSACOLA      CLOUDY    83  70  64 W18G24    29.75S
PENSACOLA NAS  PTSUNNY   82  70  66 SW17G30   29.76S
MILTON NAS     LGT RAIN  72  70  93 SW7       29.75
CRESTVIEW      CLOUDY    77  73  87 W13G18    29.75F
PANAMA CITY    RAIN      79  74  84 S15G22    29.76F FOG
APALACHICOLA   CLOUDY    81  79  94 SW23G33   29.80F

STATION/POSITION SKY/WX   TEMP    WIND        PRES    WAVE   SWELL
                          AIR SEA DIR/SP/G            HT/PER HT/PER
                          (F)     (DEG/KT/KT) (MB)    (FT/S) (FT/S)
30.1N   87.6W              77 79  240/ 25/ 29 1007.2R   7/ 7
29.2N   88.2W              78 78  210/ 19/ 23 1008.9F   7/ 7   5/ 7
28.8N   86.0W              78 78  200/ 17/ 21 1009.2    4/ 5
PANAMA CITY BEAC           71 81  240/ 32/ 36 1008.6F
TOWER C                    78     220/ 20/ 21 1010.0F
28.5N   84.5W              79 78  200/ 16/ 19 1010.3R   4/ 5   2/ 8

$$
FLZ011-016>038-118-127-128-134-139-239-232000-
NORTH FLORIDA

CITY           SKY/WX    TMP DP  RH WIND       PRES   REMARKS
MARIANNA       CLOUDY    79  72  79 SW15G24   29.74F
TALLAHASSEE    CLOUDY    82  73  74 SW15      29.77F THUNDER
PERRY          CLOUDY    82  75  79 SW17G28   29.82S
CROSS CITY     CLOUDY    82  73  74 SW18      29.83F
LAKE CITY      PTSUNNY   82  70  65 SW14      29.81F
GAINESVILLE    CLOUDY    85  68  56 SW14G25   29.82F
WILLISTON      SUNNY     88  70  55 S16G25    29.84F
PALATKA        FAIR      90  68  48 SW13G22   29.82F
MAYPORT NAS    CLOUDY    86  69  56 S13       29.80F
JACKSONVILLE   NOT AVBL
JAX NAS        CLOUDY    86  69  56 SW15G22   29.81F
FERNANDINA BEA FAIR      88  70  55 S14       29.78F
ST AUGUSTINE   PTSUNNY   89  68  49 SW16G23   29.81
PALM COAST     MOSUNNY   90  68  48 SW16G23   29.82F

STATION/POSITION SKY/WX   TEMP    WIND        PRES    WAVE   SWELL
                          AIR SEA DIR/SP/G            HT/PER HT/PER
                          (F)     (DEG/KT/KT) (MB)    (FT/S) (FT/S)
SHELL POINT      NOT AVBL
KEATON BEACH               79     210/ 21/ 25 1009.5F
CEDAR KEY                  81     220/ 16/ 20 1011.6F
FERNANDINA                 85 81  180/  6/ 10 1009.7F
30.7N   81.3W                 79                N/A     3/ 5
MAYPORT                    84 81  230/  8/ 13 1009.6F
31.4N   80.9W              78 78  170/ 16/ 19 1008.5F   3/ 5   2/ 8
ST AUGUSTINE               86 80  210/ 17/ 21 1010.0F

$$
FLZ040-043>046-052-053-057-058-063-144-232000-
INTERIOR CENTRAL FLORIDA

CITY           SKY/WX    TMP DP  RH WIND       PRES   REMARKS
OCALA          MOSUNNY   89  68  49 SW20G25   29.85F
THE VILLAGES     N/A     88  73  62 MISG      29.75F HX  96
LEESBURG       CLOUDY    89  70  53 W12G21    29.86F
SANFORD        PTSUNNY   91  68  46 SW10G24   29.85F HX  95
ORLANDO EXEC   PTSUNNY   90  69  50 SW20G29   29.86F
ORLANDO INTL   PTSUNNY   87  68  52 SW16      29.86F
KISSIMMEE      PTSUNNY   90  70  51 SW15G22   29.87F HX  95
WINTER HAVEN   MOSUNNY   89  67  47 SW9G20    29.88F
BARTOW         PTSUNNY   90  68  48 SW17      29.88F
OKEECHOBEE     MOSUNNY   88  70  55 S12G17    29.90F

$$
FLZ041-047-054-059-064-141-147-232000-
EAST CENTRAL FLORIDA

CITY           SKY/WX    TMP DP  RH WIND       PRES   REMARKS
DAYTONA BEACH  CLOUDY    88  70  55 SW14G22   29.85F
DELAND         CLOUDY    88  70  55 S14       29.84F
NEW SMYRNA BEA PTSUNNY   90  68  48 SW12G20   29.86F
MELBOURNE      CLOUDY    92  67  43 S17       29.87F HX  95
VERO BEACH     CLOUDY    93  64  38 S12G23    29.88F
FT PIERCE      PTSUNNY   94  64  37 SW8G22    29.88F HX  95
STUART         MOSUNNY   91  66  43 SW12G21   29.90F

STATION/POSITION SKY/WX   TEMP    WIND        PRES    WAVE   SWELL
                          AIR SEA DIR/SP/G            HT/PER HT/PER
                          (F)     (DEG/KT/KT) (MB)    (FT/S) (FT/S)
28.5N   80.2W              79 78  160/ 14/ 17 1013.0F   3/ 5   2/ 8
28.9N   78.5W              80 79  190/ 14/ 16 1013.1F   4/ 6   2/ 8
TRIDENT PIER               86 82  190/ 14/ 17 1012.9F
28.4N   80.5W                 80                N/A     2/ 4
27.5N   80.2W                 78                N/A     2/ 8

$$
FLZ050-056-061-142-242-148-248-149-249-151-251-155-255-
160-260-232000-
WEST CENTRAL FLORIDA

CITY           SKY/WX    TMP DP  RH WIND       PRES   REMARKS
CRYSTAL RIVER  PTSUNNY   86  72  62 SW10G20   29.86F
INVERNESS      FAIR      88  70  55 SW10G20   29.86F
BROOKSVILLE    CLOUDY    88  72  58 SW12      29.88F
CLEARWATER AIR CLOUDY    84  73  70 SW14      29.88S
ST PETE CLEARW PTSUNNY   86  71  60 SW18G25   29.88F
TAMPA INTL     CLOUDY    86  74  67 S17G24    29.89F
TAMPA EXEC     CLOUDY    91  73  55 SW13G18   29.89F HX 100
PLANT CITY     CLOUDY    91  72  52 SW15G21   29.90F HX  98
PETER O KNIGHT PTSUNNY   90  77  66 SW15G23   29.89F HX 102
ST PETERSBURG  CLOUDY    82  74  76 SW18G28   29.87S
SARASOTA       PTSUNNY   86  73  65 S17G24    29.87F
VENICE         FAIR      86  77  74 S14       29.91S HX  97

STATION/POSITION SKY/WX   TEMP    WIND        PRES    WAVE   SWELL
                          AIR SEA DIR/SP/G            HT/PER HT/PER
                          (F)     (DEG/KT/KT) (MB)    (FT/S) (FT/S)
27.3N   84.2W                 78                N/A     3/ 5
CLEARWATER BEACH           81 83  190/ 19/ 23 1012.1F
MIDDLE TAMPA BAY           83     220/ 15/ 18 1012.3F
VENICE                     82 85  180/ 17/ 19 1012.1F

$$
FLZ066-069-070-075>078-162-262-165-265-232000-
SOUTHWEST FLORIDA AND KEYS

CITY           SKY/WX    TMP DP  RH WIND       PRES   REMARKS
PUNTA GORDA    CLOUDY    89  71  55 SW15G21   29.91F HX  95
FT MYERS       PTSUNNY   87  73  62 S15G23    29.89F
SOUTHWEST INTL PTSUNNY   87  71  58 SW15G24   29.89F
NAPLES         CLOUDY    87  73  62 S15       29.91F
MARCO ISLAND   PTSUNNY   88  73  62 S13       29.92F HX  96
IMMOKALEE      FAIR      90  70  51 SW10G18   29.91S HX  95
MARATHON       MOSUNNY   87  75  67 S9G17     29.94F HX  96
KEY WEST NAS   PTSUNNY   85  76  74 SE14      29.93F
KEY WEST INTL  MOSUNNY   85  75  72 S13       29.93F

STATION/POSITION SKY/WX   TEMP    WIND        PRES    WAVE   SWELL
                          AIR SEA DIR/SP/G            HT/PER HT/PER
                          (F)     (DEG/KT/KT) (MB)    (FT/S) (FT/S)
NAPLES                        85  170/ 17/ 19 1012.9F
DRY TORTUGAS               81     170/ 13/ 15 1013.2F
SAND KEY                   80     180/ 12/ 13 1014.1F
LONG KEY                   81 84  190/ 11/ 13 1014.5F
MOLASSES REEF              81 82  180/ 13/ 14 1014.9F

$$
FLZ067-068-071>074-168-172>174-232000-
SOUTHEAST FLORIDA

CITY           SKY/WX    TMP DP  RH WIND       PRES   REMARKS
W PALM BEACH   PTSUNNY   89  67  47 S15G26    29.90F
BOCA RATON     MOSUNNY   86  70  58 S14G25    29.91F
FT LAUDER-EXEC MOSUNNY   90  68  48 SE17G26   29.91F
FT LAUDERDALE  PTSUNNY   87  71  58 SE21      29.91F
POMPANO BEACH  SUNNY     87  71  58 S21G28    29.92F
PEMBROKE PINES MOSUNNY   89  68  49 S15       29.93F
OPA LOCKA      SUNNY     90  70  51 S17       29.93F HX  95
MIAMI          MOSUNNY   88  71  57 SE16G25   29.93F
WEST KENDALL   MOSUNNY   90  67  46 SE10G22   29.92F
HOMESTEAD      NOT AVBL

STATION/POSITION SKY/WX   TEMP    WIND        PRES    WAVE   SWELL
                          AIR SEA DIR/SP/G            HT/PER HT/PER
                          (F)     (DEG/KT/KT) (MB)    (FT/S) (FT/S)
PORT EVERGLADES            83     160/ 15/ 19 1013.7F
VIRGINIA KEY               82 85  140/ 12/ 17 1013.3F
LAKE WORTH                 81 82              1013.8F
FOWEY ROCKS                82 82  180/ 16/ 17 1014.6F
SETTLEMENT POINT           81     190/ 15/ 17 1013.9F

$$





USA.gov is the U.S. government's official web portal to all federal, state and local government web resources and services.